Regional Weather Roundup
Issued by NWS Columbia, SC

Home | Current Version | Previous Version | Text Only | Print | Product List | Glossary On
Versions: 1 2 3 4 5 6 7 8 9 10 11 12 13 14 15 16 17 18 19 20 21 22 23 24 25 26 27
000
ASUS42 KCAE 251510
RWRCAE
REGIONAL WEATHER ROUNDUP
NATIONAL WEATHER SERVICE COLUMBIA SC
1100 AM EDT SUN JUN 25 2017

NOTE: "FAIR" INDICATES FEW OR NO CLOUDS BELOW 12,000 FEET WITH NO
SIGNIFICANT WEATHER AND/OR OBSTRUCTIONS TO VISIBILITY.

NOT ALL STATIONS ARE QUALITY CONTROLLED BY THE NATIONAL
WEATHER SERVICE. USE DATA WITH CAUTION...ESPECIALLY
DEWPOINT OBSERVATIONS.

SCZ001>056-GAZ040-063>065-077-251600-
...UPSTATE SOUTH CAROLINA...

CITY           SKY/WX    TMP DP  RH WIND       PRES   REMARKS
ANDERSON       CLOUDY    77  67  71 NE3       30.13R
LIBERTY        CLOUDY    76  69  78 N3        30.14S
SPARTANBURG    CLOUDY    75  63  64 N6        30.14R
CLEMSON        CLOUDY    75  71  87 CALM      30.14S
GREENVILLE     CLOUDY    79  63  57 N8        30.15R
GREENWOOD      CLOUDY    78  68  71 NE6       30.13R
GREER          CLOUDY    77  65  66 N3        30.14R
ROCK HILL      CLOUDY    80  65  59 N10       30.13R
CHESTER        CLOUDY    79  63  57 N8        30.13R
LAURENS        CLOUDY    77  68  73 N5        30.13R


...CENTRAL SOUTH CAROLINA...

CITY           SKY/WX    TMP DP  RH WIND       PRES   REMARKS
COLUMBIA APT   CLOUDY    83  71  67 NW5       30.07R
COLUMBIA OWENS CLOUDY    83  70  64 CALM      30.08S
MCENTIRE ANGB  PTSUNNY   83  74  74 CALM      30.08R
ORANGEBURG     CLOUDY    82  71  69 VRB3      30.08S
SUMTER SHAW    MOSUNNY   80  72  75 CALM      30.05S
NEWBERRY       PTSUNNY   81  70  69 N7        30.14R
AIKEN          FAIR      81  72  74 NW3       30.12S
BARNWELL       FAIR      84  75  74 CALM      30.08S
MANNING        FAIR      81  75  83 SW5       30.08S
CAMDEN         FAIR      81  72  74 CALM      30.09R
LANCASTER      SUNNY     82  64  54 N6        30.11R
WINNSBORO      SUNNY     81  68  65 NE3       30.10R


...EASTERN AND COASTAL SOUTH CAROLINA...

CITY           SKY/WX    TMP DP  RH WIND       PRES   REMARKS
MYRTLE BEACH   PTSUNNY   82  73  74 W6        30.08R
N MYRTLE BCH   CLOUDY    81  74  79 W3        30.06R
CONWAY         FAIR      79  72  78 W5        30.08R
MARION         FAIR      81  72  74 NW5       30.07S
HARTSVILLE     FAIR      79  72  78 N5        30.07S
FLORENCE       CLOUDY    78  72  81 CALM      30.08R
DARLINGTON     MOSUNNY   79  73  82 N3        30.08S
CHARLESTON APT MOSUNNY   87  71  58 NW6       30.07S
MOUNT PLEASANT FAIR      86  73  66 CALM      30.08R
WALTERBORO     CLOUDY    82  72  69 NW3       30.08S
BEAUFORT       CLOUDY    86  76  71 CALM      30.08S HX  96


...EASTERN GEORGIA...

CITY           SKY/WX    TMP DP  RH WIND       PRES   REMARKS
AUGUSTA BUSH F SUNNY     86  72  62 CALM      30.08S
AUGUSTA DANIEL SUNNY     83  67  58 VRB3      30.10S
THOMSON        CLOUDY    79  73  80 N5        30.16R
WASHINGTON     CLOUDY    75  75 100 NW3       30.12S
CLAXTON        FAIR      86  75  71 SW3       30.08S HX  95
SYLVANIA       CLOUDY    83  77  82 CALM      30.10R
STATESBORO     CLOUDY    84  78  82 CALM      30.08S


...SOUTHERN NORTH CAROLINA...

CITY           SKY/WX    TMP DP  RH WIND       PRES   REMARKS
CHARLOTTE      CLOUDY    77  63  61 N8        30.13R
MONROE           N/A     81  63  54 N10       30.11R
WADESBORO      MOSUNNY   80  67  65 N5        30.09R
ROCKINGHAM     MOSUNNY   80  70  70 N6        30.09R
ASHEVILLE      CLOUDY    71  55  56 N14G22    30.22R

$$




USA.gov is the U.S. government's official web portal to all federal, state and local government web resources and services.